Lid_Strength_Index
-1 -1 -1 -1 -1 -1 -1 -2 -2 -2 -2 -2 -2 -2 -2 -2 -2 -2 -1 -1 -1 -1 -2 -2 -2 -2 -2 -2 -3 -3 -2 -1
-1 -1 -1 -1 -1 -1 -1 -2 -2 -2 -2 -2 -2 -3 -3 -3 -3 -2 -1 -1 -1 -2 -2 -2 -2 -2 -2 -2 -2 -3 -2 -1
-1 -1 -1 -2 -2 -2 -2 -2 -2 -2 -2 -2 -2 -2 -2 -1 -2 -2 -1 -2 -2 -2 -2 -2 -2 -2 -2 -1 -2 -1 -1 -0
-0 -1 -1 -2 -1 -2 -2 -1 -2 -2 -2 -2 -2 -2 -2 -1 -2 -2 -2 -2 -2 -2 -2 -2 -2 -1 -1 -2 -1 -1 -1 -0
-0 -1 -2 -2 -1 -1 -1 -1 -1 -2 -2 -2 -2 -2 -2 -2 -2 -2 -2 -2 -2 -2 -2 -1 -1 -1 -1 -1 -1 -1 -0 -0
-0 -1 -1 -2 -1 -1 -1 -1 -1 -1 -2 -2 -2 -1 -2 -2 -2 -2 -2 -2 -2 -2 -1 -1 -1 -1 -1 -1 -0 0 0 0
-0 -1 -1 -1 -1 -1 -1 -1 -2 -2 -2 -2 -2 -1 -1 -2 -2 -2 -2 -1 -1 -1 -1 -0 -0 -0 -0 0 1 1 1 1
-0 -1 -1 -1 -1 -1 -2 -2 -2 -1 -1 -1 -2 -1 -2 -2 -2 -1 -0 0 0 0 0 1 1 1 1 1 2 1 1 1
-0 -0 -1 -1 -1 -1 -1 -1 -1 -1 -1 -1 -1 -2 -1 -1 0 1 1 0 -0 1 1 2 2 2 2 2 3 2 2 3
-0 -0 -1 -1 -1 -1 0 -0 -0 -0 -1 -1 -1 -0 0 -0 1 1 0 1 1 2 2 3 3 3 3 3 4 3 3 3
0 -0 -0 -0 1 2 2 3 1 1 0 1 1 1 1 0 1 1 1 2 2 2 3 3 4 4 4 4 4 4 3 3
0 0 -0 -0 0 0 2 3 2 1 2 2 1 1 0 1 2 2 2 2 3 3 3 4 4 4 5 4 3 4 3 2
1 1 -0 -0 1 1 2 2 3 2 2 1 0 0 1 1 1 2 2 3 3 2 3 3 4 3 5 5 5 3 3 4
1 1 0 -0 -0 -0 -0 0 0 -0 0 -0 -1 0 1 1 1 2 2 3 3 3 3 4 4 4 6 6 8 7 5 4
1 0 0 -0 -1 -0 -0 -1 -1 0 0 0 0 1 1 1 2 2 2 3 3 3 3 4 6 5 4 6 8 9 8 6
0 0 -0 -0 -1 -0 0 1 1 0 0 0 1 1 1 2 2 2 2 3 3 3 3 4 4 6 5 5 5 6 9 10
0 0 -0 -0 -0 -1 -0 0 -0 -1 -0 0 1 1 1 2 2 2 2 3 3 2 3 3 4 5 6 6 6 7 7 8
0 0 0 -0 -0 -0 -0 0 1 1 1 2 2 2 2 2 2 2 2 3 3 3 3 4 4 4 5 5 6 7 7 7
1 0 1 -0 -0 -0 -0 1 1 3 2 3 3 3 3 3 3 3 4 4 4 4 4 4 4 4 5 5 4 5 5 5
1 1 1 0 0 1 1 2 2 3 2 3 3 4 3 3 4 4 5 5 5 4 4 4 3 3 4 4 4 3 3 3